Location: Serpukhov
(54.9240°N, 37.4330°E)
Time: 04:37:58
(UTC+03:00)

ISS - Visible Passes

Search period start: 22 November 2017 00:00
Search period end: 02 December 2017 00:00
Orbit: 402 x 407 km, 51.6° (Epoch: 22 November)

Date Brightness Start Highest point End Pass type
(mag) Time Alt. Az. Time Alt. Az. Time Alt. Az.
30 Nov -1.6 18:36:05 10° SSW 18:37:37 17° S 18:37:37 17° S visible
01 Dec -1.5 17:44:37 10° S 17:46:20 14° SE 17:47:24 12° SE visible
01 Dec -1.1 19:19:08 10° SW 19:20:03 17° SW 19:20:03 17° SW visible
